Weather in Beira

Mozambique     19°46′05″S   34°52′19″E
temp.,
°C
wind,
m/s
gust,
m/s
humid.,
%
clouds,
%
prec.,
mm/h
press.,
hPa
HPBL,
m
24 january, sun
sun2423:00+26n41387100 0.0 1006624
02:00+25nne31187100 0.0 1005500
05:00+25ne51185100 0.0 1006466
08:00+25nne51281100 0.0 1008635
11:00+28n51273100 0.0 1008962
14:00+30nne6126698 0.0 10071236
17:00+27nne6137389 0.0 1007850
20:00+26nne5137193 0.0 1009584
25 january, mon
mon2523:00+26nnw41171100 0.0 1010425
02:00+24nne3780100 0.0 1009255
05:00+24ne3580100 0.0 1011174
08:00+25ne2482100 0.0 1012207
11:00+26nnw1280100 0.0 1013202
14:00+30ne3565100 0.0 10111135
17:00+27nw2385100 1.2 1011163
20:00+24wnw2389100 1.3 1012100
26 january, tue
tue2623:00+23wnw228892 0.0 101468
02:00+24wnw2387100 0.0 101297
05:00+22w118698 0.0 101353
08:00+25nw2382100 0.0 1014236
11:00+30wnw226481 0.0 10131007
14:00+31ssw116121 0.0 10101027
17:00+28ese357352 0.8 1009428
20:00+25ene358566 1.6 1011150
27 january, wed
wed2723:00+25ne238721 0.1 101286
02:00+24nnw229211 0.1 101079
05:00+23nw229115 0.0 101167
08:00+26nw228123 0.0 1012280
11:00+32nw116389 0.0 1011951
14:00+32sse215987 0.1 10071181
17:00+29ese457611 0.4 1006490
20:00+26e368634 0.5 1008258
28 january, thu
thu2823:00+26ene258546 0.0 1009191
02:00+24n228850 0.0 100881
05:00+24nnw22920 0.0 100965
08:00+27nnw22800 0.0 1010358
11:00+32e116320 0.0 1010947
14:00+30ese337545 1.3 1007739
17:00+29ese467852 1.0 1006642
20:00+27ese378034 1.1 1008314